START_TIME,STEP,MOV.,P11,t_acc.,P23,t_acc.,P27,t_acc.,A4,t_acc.
1979-07-26 06:00:22.450 ,0,1,0.,4.8,0.,4.8,0.,4.8,0.,4.8
1979-07-26 06:00:27.250 ,0,1,0.,4.8,0.,4.8,0.,4.8,0.,4.8
1979-07-26 06:00:32.050 ,0,1,0.,4.8,0.,4.8,0.,4.8,0.,4.8
1979-07-26 06:00:36.850 ,0,1,1.,4.8,0.,4.8,0.,4.8,0.,4.8
1979-07-26 06:00:41.650 ,0,1,1.,4.8,1.,4.8,0.,4.8,0.,4.8
1979-07-26 06:00:46.450 ,4,1,0.,4.8,0.,4.8,0.,4.8,0.,4.8
1979-07-26 06:00:51.250 ,4,1,0.,4.8,0.,4.8,0.,4.8,0.,4.8
1979-07-26 06:00:56.050 ,4,1,0.,4.8,0.,4.8,0.,4.8,0.,4.8
1979-07-26 06:01:00.850 ,4,1,0.,4.8,0.,4.8,0.,4.8,0.,4.8
1979-07-26 06:01:05.650 ,4,1,0.,4.8,0.,4.8,0.,4.8,0.,4.8
1979-07-26 06:01:10.450 ,7,1,0.,4.8,0.,4.8,0.,4.8,0.,4.8
1979-07-26 06:01:15.250 ,7,1,0.,4.8,0.,4.8,0.,4.8,0.,4.8
1979-07-26 06:01:20.050 ,7,1,0.,4.8,0.,4.8,0.,4.8,0.,4.8
1979-07-26 06:01:24.850 ,7,1,0.,4.8,0.,4.8,0.,4.8,0.,4.8
1979-07-26 06:01:29.650 ,7,1,0.,4.8,0.,4.8,0.,4.8,0.,4.8
1979-07-26 06:01:34.450 ,3,1,2.,4.8,0.,4.8,0.,4.8,0.,4.8
1979-07-26 06:01:39.250 ,3,1,0.,4.8,0.,4.8,0.,4.8,0.,4.8
1979-07-26 06:01:44.050 ,3,1,2.,4.8,0.,4.8,0.,4.8,0.,4.8
1979-07-26 06:01:48.850 ,3,1,0.,4.8,0.,4.8,0.,4.8,0.,4.8
1979-07-26 06:01:53.650 ,3,1,0.,4.8,0.,4.8,0.,4.8,0.,4.8
1979-07-26 06:01:58.450 ,0,1,0.,4.8,0.,4.8,0.,4.8,0.,4.8
1979-07-26 06:02:03.250 ,0,1,0.,4.8,1.,4.8,1.,4.8,0.,4.8
1979-07-26 06:02:08.050 ,0,1,0.,4.8,0.,4.8,1.,4.8,0.,4.8
1979-07-26 06:02:12.850 ,0,1,0.,4.8,0.,4.8,0.,4.8,0.,4.8
1979-07-26 06:02:17.650 ,0,1,0.,4.8,0.,4.8,0.,4.8,0.,4.8
1979-07-26 06:02:22.450 ,4,1,1.,4.8,0.,4.8,0.,4.8,0.,4.8
1979-07-26 06:02:27.250 ,4,1,0.,4.8,0.,4.8,0.,4.8,0.,4.8
1979-07-26 06:02:32.050 ,4,1,2.,4.8,0.,4.8,0.,4.8,0.,4.8
1979-07-26 06:02:36.850 ,4,1,1.,4.8,0.,4.8,0.,4.8,0.,4.8
1979-07-26 06:02:41.650 ,4,1,0.,4.8,0.,4.8,0.,4.8,0.,4.8
1979-07-26 06:02:46.450 ,7,1,1.,4.8,0.,4.8,0.,4.8,0.,4.8
1979-07-26 06:02:51.250 ,7,1,1.,4.8,0.,4.8,0.,4.8,0.,4.8
1979-07-26 06:02:56.050 ,7,1,0.,4.8,0.,4.8,0.,4.8,0.,4.8
1979-07-26 06:03:00.850 ,7,1,0.,4.8,0.,4.8,0.,4.8,0.,4.8
1979-07-26 06:03:05.650 ,7,1,0.,4.8,0.,4.8,0.,4.8,0.,4.8
1979-07-26 06:03:10.450 ,3,1,2.,4.8,0.,4.8,0.,4.8,0.,4.8
1979-07-26 06:03:15.250 ,3,1,1.,4.8,0.,4.8,0.,4.8,0.,4.8
1979-07-26 06:03:20.050 ,3,1,0.,4.8,0.,4.8,0.,4.8,0.,4.8
1979-07-26 06:03:24.850 ,3,1,0.,4.8,0.,4.8,0.,4.8,0.,4.8
1979-07-26 06:03:29.650 ,3,1,0.,4.8,0.,4.8,1.,4.8,0.,4.8
1979-07-26 06:03:34.450 ,0,1,0.,4.8,0.,4.8,0.,4.8,0.,4.8
1979-07-26 06:03:39.250 ,0,1,1.,4.8,0.,4.8,0.,4.8,0.,4.8
1979-07-26 06:03:44.050 ,0,1,1.,4.8,0.,4.8,0.,4.8,0.,4.8
1979-07-26 06:03:48.850 ,0,1,1.,4.8,0.,4.8,0.,4.8,0.,4.8
1979-07-26 06:03:53.650 ,0,1,0.,4.8,1.,4.8,0.,4.8,0.,4.8
1979-07-26 06:03:58.450 ,4,1,0.,4.8,0.,4.8,0.,4.8,0.,4.8
1979-07-26 06:04:03.250 ,4,1,1.,4.8,0.,4.8,0.,4.8,0.,4.8
1979-07-26 06:04:08.050 ,4,1,1.,4.8,0.,4.8,0.,4.8,0.,4.8
1979-07-26 06:04:12.850 ,4,1,0.,4.8,0.,4.8,0.,4.8,0.,4.8
1979-07-26 06:04:17.650 ,4,1,1.,4.8,0.,4.8,0.,4.8,0.,4.8
1979-07-26 06:04:22.450 ,7,1,0.,4.8,0.,4.8,0.,4.8,0.,4.8
1979-07-26 06:04:27.250 ,7,1,0.,4.8,0.,4.8,0.,4.8,0.,4.8
1979-07-26 06:04:32.050 ,7,1,0.,4.8,0.,4.8,0.,4.8,0.,4.8
1979-07-26 06:04:36.850 ,7,1,1.,4.8,0.,4.8,0.,4.8,0.,4.8
1979-07-26 06:04:41.650 ,7,1,0.,4.8,0.,4.8,0.,4.8,0.,4.8
1979-07-26 06:04:46.450 ,3,1,1.,4.8,0.,4.8,1.,4.8,0.,4.8
1979-07-26 06:04:51.250 ,3,1,0.,4.8,0.,4.8,0.,4.8,0.,4.8
1979-07-26 06:04:56.050 ,3,1,0.,4.8,0.,4.8,0.,4.8,0.,4.8
1979-07-26 06:05:00.850 ,3,1,2.,4.8,0.,4.8,0.,4.8,0.,4.8
1979-07-26 06:05:05.650 ,3,1,1.,4.8,0.,4.8,0.,4.8,0.,4.8
1979-07-26 06:05:10.450 ,0,1,0.,4.8,0.,4.8,0.,4.8,0.,4.8
1979-07-26 06:05:15.250 ,0,1,0.,4.8,0.,4.8,0.,4.8,0.,4.8
1979-07-26 06:05:20.050 ,0,1,0.,4.8,0.,4.8,1.,4.8,0.,4.8
1979-07-26 06:05:24.850 ,0,1,0.,4.8,0.,4.8,1.,4.8,0.,4.8
1979-07-26 06:05:29.650 ,0,1,0.,4.8,0.,4.8,0.,4.8,0.,4.8
1979-07-26 06:05:34.450 ,0,0,1.,4.8,0.,4.8,0.,4.8,0.,4.8
1979-07-26 06:05:39.250 ,0,0,2.,4.8,0.,4.8,0.,4.8,0.,4.8
1979-07-26 06:05:44.050 ,0,0,0.,4.8,0.,4.8,0.,4.8,0.,4.8
1979-07-26 06:05:48.850 ,0,0,1.,4.8,0.,4.8,0.,4.8,0.,4.8
1979-07-26 06:05:53.650 ,0,0,0.,4.8,0.,4.8,0.,4.8,0.,4.8
1979-07-26 06:05:58.450 ,0,0,0.,4.8,0.,4.8,0.,4.8,0.,4.8
1979-07-26 06:06:03.250 ,0,0,0.,4.8,0.,4.8,1.,4.8,0.,4.8
1979-07-26 06:06:08.050 ,0,0,0.,4.8,0.,4.8,0.,4.8,0.,4.8
1979-07-26 06:06:12.850 ,0,0,0.,4.8,0.,4.8,0.,4.8,0.,4.8
1979-07-26 06:06:17.650 ,0,0,0.,4.8,0.,4.8,0.,4.8,0.,4.8
1979-07-26 06:06:22.450 ,5,0,0.,4.8,0.,4.8,0.,4.8,0.,4.8
1979-07-26 06:06:27.250 ,5,0,0.,4.8,0.,4.8,0.,4.8,0.,4.8
1979-07-26 06:06:32.050 ,5,0,0.,4.8,0.,4.8,0.,4.8,0.,4.8
1979-07-26 06:06:36.850 ,5,0,0.,4.8,0.,4.8,0.,4.8,0.,4.8
1979-07-26 06:06:41.650 ,5,0,0.,4.8,0.,4.8,0.,4.8,0.,4.8
1979-07-26 06:06:46.450 ,5,0,0.,4.8,0.,4.8,1.,4.8,0.,4.8
1979-07-26 06:06:51.250 ,5,0,1.,4.8,0.,4.8,0.,4.8,0.,4.8
1979-07-26 06:06:56.050 ,5,0,1.,4.8,0.,4.8,0.,4.8,0.,4.8
1979-07-26 06:07:00.850 ,5,0,0.,4.8,0.,4.8,0.,4.8,0.,4.8
1979-07-26 06:07:05.650 ,5,0,0.,4.8,0.,4.8,0.,4.8,0.,4.8
1979-07-26 06:07:10.450 ,4,0,0.,4.8,0.,4.8,0.,4.8,0.,4.8
1979-07-26 06:07:15.250 ,4,0,0.,4.8,0.,4.8,0.,4.8,0.,4.8
1979-07-26 06:07:20.050 ,4,0,0.,4.8,0.,4.8,0.,4.8,0.,4.8
1979-07-26 06:07:24.850 ,4,0,0.,4.8,0.,4.8,0.,4.8,0.,4.8
1979-07-26 06:07:29.650 ,4,0,1.,4.8,0.,4.8,0.,4.8,0.,4.8
1979-07-26 06:07:34.450 ,4,0,0.,4.8,1.,4.8,0.,4.8,0.,4.8
1979-07-26 06:07:39.250 ,4,0,2.,4.8,0.,4.8,0.,4.8,0.,4.8
1979-07-26 06:07:44.050 ,4,0,1.,4.8,0.,4.8,0.,4.8,0.,4.8
1979-07-26 06:07:48.850 ,4,0,1.,4.8,0.,4.8,0.,4.8,0.,4.8
1979-07-26 06:07:53.650 ,4,0,0.,4.8,0.,4.8,0.,4.8,0.,4.8
1979-07-26 06:07:58.450 ,3,0,0.,4.8,0.,4.8,0.,4.8,0.,4.8
1979-07-26 06:08:03.250 ,3,0,0.,4.8,0.,4.8,0.,4.8,0.,4.8
1979-07-26 06:08:08.050 ,3,0,0.,4.8,0.,4.8,0.,4.8,0.,4.8
1979-07-26 06:08:12.850 ,3,0,1.,4.8,0.,4.8,0.,4.8,0.,4.8
1979-07-26 06:08:17.650 ,3,0,0.,4.8,0.,4.8,0.,4.8,0.,4.8
1979-07-26 06:08:22.450 ,3,0,0.,4.8,1.,4.8,1.,4.8,0.,4.8
1979-07-26 06:08:27.250 ,3,0,1.,4.8,0.,4.8,1.,4.8,0.,4.8
1979-07-26 06:08:32.050 ,3,0,1.,4.8,0.,4.8,0.,4.8,0.,4.8
1979-07-26 06:08:36.850 ,3,0,1.,4.8,0.,4.8,0.,4.8,0.,4.8
1979-07-26 06:08:41.650 ,3,0,1.,4.8,0.,4.8,1.,4.8,0.,4.8
1979-07-26 06:08:46.450 ,2,0,0.,4.8,0.,4.8,0.,4.8,0.,4.8
1979-07-26 06:08:51.250 ,2,0,0.,4.8,0.,4.8,0.,4.8,0.,4.8
1979-07-26 06:08:56.050 ,2,0,2.,4.8,0.,4.8,0.,4.8,0.,4.8
1979-07-26 06:09:00.850 ,2,0,0.,4.8,0.,4.8,0.,4.8,0.,4.8
1979-07-26 06:09:05.650 ,2,0,0.,4.8,0.,4.8,0.,4.8,0.,4.8
1979-07-26 06:09:10.450 ,2,0,0.,4.8,0.,4.8,0.,4.8,0.,4.8
1979-07-26 06:09:15.250 ,2,0,0.,4.8,0.,4.8,0.,4.8,0.,4.8
1979-07-26 06:09:20.050 ,2,0,1.,4.8,0.,4.8,0.,4.8,0.,4.8
1979-07-26 06:09:24.850 ,2,0,1.,4.8,0.,4.8,0.,4.8,0.,4.8
1979-07-26 06:09:29.650 ,2,0,0.,4.8,0.,4.8,1.,4.8,0.,4.8
1979-07-26 06:09:34.450 ,1,0,0.,4.8,0.,4.8,0.,4.8,0.,4.8
1979-07-26 06:09:39.250 ,1,0,0.,4.8,0.,4.8,0.,4.8,0.,4.8
1979-07-26 06:09:44.050 ,1,0,0.,4.8,0.,4.8,0.,4.8,0.,4.8
1979-07-26 06:09:48.850 ,1,0,0.,4.8,0.,4.8,0.,4.8,0.,4.8
1979-07-26 06:09:53.650 ,1,0,0.,4.8,0.,4.8,0.,4.8,0.,4.8
1979-07-26 06:09:58.450 ,1,0,1.,4.8,0.,4.8,0.,4.8,0.,4.8
1979-07-26 06:10:03.250 ,1,0,0.,4.8,1.,4.8,0.,4.8,0.,4.8
1979-07-26 06:10:08.050 ,1,0,0.,4.8,0.,4.8,0.,4.8,0.,4.8
1979-07-26 06:10:12.850 ,1,0,0.,4.8,0.,4.8,0.,4.8,0.,4.8
1979-07-26 06:10:17.650 ,1,0,0.,4.8,0.,4.8,0.,4.8,0.,4.8
1979-07-26 06:10:22.450 ,0,0,0.,4.8,0.,4.8,0.,4.8,0.,4.8
1979-07-26 06:10:27.250 ,0,0,0.,4.8,1.,4.8,0.,4.8,0.,4.8
1979-07-26 06:10:32.050 ,0,0,2.,4.8,0.,4.8,0.,4.8,0.,4.8
1979-07-26 06:10:36.850 ,0,0,1.,4.8,0.,4.8,0.,4.8,0.,4.8
1979-07-26 06:10:41.650 ,0,0,0.,4.8,0.,4.8,0.,4.8,0.,4.8
1979-07-26 06:10:46.450 ,0,0,0.,4.8,0.,4.8,0.,4.8,0.,4.8
1979-07-26 06:10:51.250 ,0,0,1.,4.8,1.,4.8,0.,4.8,0.,4.8
1979-07-26 06:10:56.050 ,0,0,1.,4.8,0.,4.8,0.,4.8,0.,4.8
1979-07-26 06:11:00.850 ,0,0,0.,4.8,0.,4.8,1.,4.8,0.,4.8
1979-07-26 06:11:05.650 ,0,0,1.,4.8,0.,4.8,0.,4.8,0.,4.8
1979-07-26 06:11:10.450 ,0,0,1.,4.8,0.,4.8,0.,4.8,0.,4.8
1979-07-26 06:11:15.250 ,0,0,1.,4.8,0.,4.8,0.,4.8,0.,4.8
1979-07-26 06:11:20.050 ,0,0,0.,4.8,0.,4.8,0.,4.8,0.,4.8
1979-07-26 06:11:24.850 ,0,0,0.,4.8,0.,4.8,0.,4.8,0.,4.8
1979-07-26 06:11:29.650 ,0,0,0.,4.8,0.,4.8,0.,4.8,0.,4.8
1979-07-26 06:11:34.450 ,0,0,0.,4.8,0.,4.8,0.,4.8,0.,4.8
1979-07-26 06:11:39.250 ,0,0,1.,4.8,0.,4.8,0.,4.8,0.,4.8
1979-07-26 06:11:44.050 ,0,0,0.,4.8,0.,4.8,0.,4.8,0.,4.8
1979-07-26 06:11:48.850 ,0,0,1.,4.8,0.,4.8,0.,4.8,0.,4.8
1979-07-26 06:11:53.650 ,0,0,0.,4.8,0.,4.8,0.,4.8,1.,4.8
1979-07-26 06:11:58.450 ,1,0,0.,4.8,0.,4.8,1.,4.8,0.,4.8
1979-07-26 06:12:03.250 ,1,0,0.,4.8,0.,4.8,0.,4.8,0.,4.8
1979-07-26 06:12:08.050 ,1,0,1.,4.8,0.,4.8,0.,4.8,0.,4.8
1979-07-26 06:12:12.850 ,1,0,0.,4.8,0.,4.8,0.,4.8,0.,4.8
1979-07-26 06:12:17.650 ,1,0,0.,4.8,0.,4.8,0.,4.8,0.,4.8
1979-07-26 06:12:22.450 ,1,0,2.,4.8,0.,4.8,0.,4.8,0.,4.8
1979-07-26 06:12:27.250 ,1,0,0.,4.8,0.,4.8,0.,4.8,1.,4.8
1979-07-26 06:12:32.050 ,1,0,0.,4.8,0.,4.8,0.,4.8,0.,4.8
1979-07-26 06:12:36.850 ,1,0,0.,4.8,0.,4.8,0.,4.8,0.,4.8
1979-07-26 06:12:41.650 ,1,0,0.,4.8,0.,4.8,0.,4.8,0.,4.8
1979-07-26 06:12:46.450 ,2,0,1.,4.8,0.,4.8,0.,4.8,0.,4.8
1979-07-26 06:12:51.250 ,2,0,1.,4.8,0.,4.8,0.,4.8,0.,4.8
1979-07-26 06:12:56.050 ,2,0,2.,4.8,0.,4.8,0.,4.8,0.,4.8
1979-07-26 06:13:00.850 ,2,0,0.,4.8,0.,4.8,0.,4.8,0.,4.8
1979-07-26 06:13:05.650 ,2,0,0.,4.8,0.,4.8,0.,4.8,0.,4.8
1979-07-26 06:13:10.450 ,2,0,0.,4.8,0.,4.8,0.,4.8,0.,4.8
1979-07-26 06:13:15.250 ,2,0,1.,4.8,0.,4.8,0.,4.8,0.,4.8
1979-07-26 06:13:20.050 ,2,0,0.,4.8,0.,4.8,0.,4.8,0.,4.8
1979-07-26 06:13:24.850 ,2,0,0.,4.8,0.,4.8,0.,4.8,0.,4.8
1979-07-26 06:13:29.650 ,2,0,0.,4.8,0.,4.8,1.,4.8,0.,4.8
1979-07-26 06:13:34.450 ,3,0,0.,4.8,0.,4.8,0.,4.8,0.,4.8
1979-07-26 06:13:39.250 ,3,0,0.,4.8,0.,4.8,0.,4.8,0.,4.8
1979-07-26 06:13:44.050 ,3,0,0.,4.8,0.,4.8,0.,4.8,0.,4.8
1979-07-26 06:13:48.850 ,3,0,0.,4.8,0.,4.8,0.,4.8,0.,4.8
1979-07-26 06:13:53.650 ,3,0,0.,4.8,0.,4.8,0.,4.8,0.,4.8
1979-07-26 06:13:58.450 ,3,0,0.,4.8,0.,4.8,0.,4.8,0.,4.8
1979-07-26 06:14:03.250 ,3,0,1.,4.8,0.,4.8,0.,4.8,0.,4.8
1979-07-26 06:14:08.050 ,3,0,1.,4.8,0.,4.8,0.,4.8,0.,4.8
1979-07-26 06:14:12.850 ,3,0,1.,4.8,1.,4.8,0.,4.8,0.,4.8
1979-07-26 06:14:17.650 ,3,0,0.,4.8,0.,4.8,0.,4.8,0.,4.8
1979-07-26 06:14:22.450 ,4,0,2.,4.8,0.,4.8,0.,4.8,0.,4.8
1979-07-26 06:14:27.250 ,4,0,0.,4.8,0.,4.8,0.,4.8,0.,4.8
1979-07-26 06:14:32.050 ,4,0,0.,4.8,0.,4.8,0.,4.8,0.,4.8
1979-07-26 06:14:36.850 ,4,0,0.,4.8,0.,4.8,0.,4.8,0.,4.8
1979-07-26 06:14:41.650 ,4,0,0.,4.8,0.,4.8,0.,4.8,0.,4.8
1979-07-26 06:14:46.450 ,4,0,0.,4.8,0.,4.8,0.,4.8,0.,4.8
1979-07-26 06:14:51.250 ,4,0,1.,4.8,0.,4.8,1.,4.8,0.,4.8
1979-07-26 06:14:56.050 ,4,0,0.,4.8,0.,4.8,0.,4.8,0.,4.8
1979-07-26 06:15:00.850 ,4,0,2.,4.8,0.,4.8,0.,4.8,0.,4.8
1979-07-26 06:15:05.650 ,4,0,0.,4.8,0.,4.8,0.,4.8,0.,4.8
1979-07-26 06:15:10.450 ,5,0,0.,4.8,0.,4.8,0.,4.8,0.,4.8
1979-07-26 06:15:15.250 ,5,0,1.,4.8,0.,4.8,0.,4.8,0.,4.8
1979-07-26 06:15:20.050 ,5,0,0.,4.8,0.,4.8,0.,4.8,0.,4.8
1979-07-26 06:15:24.850 ,5,0,0.,4.8,1.,4.8,0.,4.8,0.,4.8
1979-07-26 06:15:29.650 ,5,0,1.,4.8,0.,4.8,0.,4.8,0.,4.8
1979-07-26 06:15:34.450 ,5,0,0.,4.8,0.,4.8,0.,4.8,0.,4.8
1979-07-26 06:15:39.250 ,5,0,2.,4.8,0.,4.8,0.,4.8,0.,4.8
1979-07-26 06:15:44.050 ,5,0,0.,4.8,0.,4.8,0.,4.8,0.,4.8
1979-07-26 06:15:48.850 ,5,0,1.,4.8,0.,4.8,0.,4.8,0.,4.8
1979-07-26 06:15:53.650 ,5,0,0.,4.8,0.,4.8,0.,4.8,0.,4.8
1979-07-26 06:15:58.450 ,6,0,0.,4.8,0.,4.8,0.,4.8,0.,4.8
1979-07-26 06:16:03.250 ,6,0,1.,4.8,1.,4.8,1.,4.8,0.,4.8
1979-07-26 06:16:08.050 ,6,0,1.,4.8,0.,4.8,0.,4.8,0.,4.8
1979-07-26 06:16:12.850 ,6,0,2.,4.8,0.,4.8,1.,4.8,0.,4.8
1979-07-26 06:16:17.650 ,6,0,0.,4.8,0.,4.8,0.,4.8,0.,4.8
1979-07-26 06:16:22.450 ,6,0,0.,4.8,0.,4.8,0.,4.8,0.,4.8
1979-07-26 06:16:27.250 ,6,0,0.,4.8,0.,4.8,0.,4.8,0.,4.8
1979-07-26 06:16:32.050 ,6,0,0.,4.8,0.,4.8,0.,4.8,0.,4.8
1979-07-26 06:16:36.850 ,6,0,0.,4.8,0.,4.8,0.,4.8,0.,4.8
1979-07-26 06:16:41.650 ,6,0,0.,4.8,0.,4.8,0.,4.8,0.,4.8
1979-07-26 06:16:46.450 ,7,0,0.,4.8,1.,4.8,1.,4.8,0.,4.8
1979-07-26 06:16:51.250 ,7,0,0.,4.8,0.,4.8,0.,4.8,0.,4.8
1979-07-26 06:16:56.050 ,7,0,2.,4.8,0.,4.8,0.,4.8,0.,4.8
1979-07-26 06:17:00.850 ,7,0,0.,4.8,0.,4.8,0.,4.8,0.,4.8
1979-07-26 06:17:05.650 ,7,0,1.,4.8,0.,4.8,0.,4.8,0.,4.8
1979-07-26 06:17:10.450 ,7,0,1.,4.8,0.,4.8,0.,4.8,0.,4.8
1979-07-26 06:17:15.250 ,7,0,0.,4.8,0.,4.8,1.,4.8,0.,4.8
1979-07-26 06:17:20.050 ,7,0,0.,4.8,0.,4.8,0.,4.8,0.,4.8
1979-07-26 06:17:24.850 ,7,0,2.,4.8,0.,4.8,0.,4.8,0.,4.8
1979-07-26 06:17:29.650 ,7,0,0.,4.8,0.,4.8,0.,4.8,0.,4.8
1979-07-26 06:17:34.450 ,7,0,0.,4.8,0.,4.8,0.,4.8,0.,4.8
1979-07-26 06:17:39.250 ,7,0,1.,4.8,0.,4.8,0.,4.8,0.,4.8
1979-07-26 06:17:44.050 ,7,0,0.,4.8,0.,4.8,0.,4.8,0.,4.8
1979-07-26 06:17:48.850 ,7,0,0.,4.8,0.,4.8,0.,4.8,0.,4.8
1979-07-26 06:17:53.650 ,7,0,0.,4.8,0.,4.8,0.,4.8,0.,4.8
1979-07-26 06:17:58.450 ,7,0,0.,4.8,0.,4.8,0.,4.8,0.,4.8
1979-07-26 06:18:03.250 ,7,0,0.,4.8,0.,4.8,0.,4.8,0.,4.8
1979-07-26 06:18:08.050 ,7,0,0.,4.8,0.,4.8,0.,4.8,0.,4.8
1979-07-26 06:18:12.850 ,7,0,0.,4.8,0.,4.8,0.,4.8,0.,4.8
1979-07-26 06:18:17.650 ,7,0,1.,4.8,0.,4.8,0.,4.8,0.,4.8
1979-07-26 06:18:22.450 ,6,0,1.,4.8,0.,4.8,1.,4.8,0.,4.8
1979-07-26 06:18:27.250 ,6,0,1.,4.8,0.,4.8,0.,4.8,0.,4.8
1979-07-26 06:18:32.050 ,6,0,1.,4.8,0.,4.8,0.,4.8,0.,4.8
1979-07-26 06:18:36.850 ,6,0,0.,4.8,0.,4.8,0.,4.8,0.,4.8
1979-07-26 06:18:41.650 ,6,0,0.,4.8,0.,4.8,0.,4.8,0.,4.8
1979-07-26 06:18:46.450 ,6,0,2.,4.8,0.,4.8,0.,4.8,0.,4.8
1979-07-26 06:18:51.250 ,6,0,0.,4.8,0.,4.8,0.,4.8,0.,4.8
1979-07-26 06:18:56.050 ,6,0,0.,4.8,0.,4.8,0.,4.8,0.,4.8
1979-07-26 06:19:00.850 ,6,0,0.,4.8,0.,4.8,0.,4.8,0.,4.8
1979-07-26 06:19:05.650 ,6,0,1.,4.8,0.,4.8,0.,4.8,0.,4.8
1979-07-26 06:19:10.450 ,5,0,0.,4.8,0.,4.8,0.,4.8,0.,4.8
1979-07-26 06:19:15.250 ,5,0,0.,4.8,1.,4.8,0.,4.8,0.,4.8
1979-07-26 06:19:20.050 ,5,0,0.,4.8,0.,4.8,0.,4.8,0.,4.8
1979-07-26 06:19:24.850 ,5,0,1.,4.8,0.,4.8,0.,4.8,0.,4.8
1979-07-26 06:19:29.650 ,5,0,0.,4.8,0.,4.8,0.,4.8,0.,4.8
1979-07-26 06:19:34.450 ,5,0,1.,4.8,0.,4.8,1.,4.8,0.,4.8
1979-07-26 06:19:39.250 ,5,0,1.,4.8,0.,4.8,0.,4.8,0.,4.8
1979-07-26 06:19:44.050 ,5,0,0.,4.8,0.,4.8,0.,4.8,0.,4.8
1979-07-26 06:19:48.850 ,5,0,0.,4.8,0.,4.8,0.,4.8,0.,4.8
1979-07-26 06:19:53.650 ,5,0,0.,4.8,0.,4.8,0.,4.8,0.,4.8
1979-07-26 06:19:58.450 ,4,0,0.,4.8,0.,4.8,0.,4.8,0.,4.8
1979-07-26 06:20:03.250 ,4,0,1.,4.8,0.,4.8,0.,4.8,0.,4.8
1979-07-26 06:20:08.050 ,4,0,2.,4.8,0.,4.8,0.,4.8,0.,4.8
1979-07-26 06:20:12.850 ,4,0,0.,4.8,0.,4.8,0.,4.8,0.,4.8
1979-07-26 06:20:17.650 ,4,0,0.,4.8,0.,4.8,0.,4.8,0.,4.8
1979-07-26 06:20:22.450 ,4,0,1.,4.8,0.,4.8,1.,4.8,0.,4.8
1979-07-26 06:20:27.250 ,4,0,0.,4.8,0.,4.8,0.,4.8,0.,4.8
1979-07-26 06:20:32.050 ,4,0,1.,4.8,0.,4.8,0.,4.8,0.,4.8
1979-07-26 06:20:36.850 ,4,0,1.,4.8,0.,4.8,1.,4.8,0.,4.8
1979-07-26 06:20:41.650 ,4,0,0.,4.8,0.,4.8,0.,4.8,0.,4.8
1979-07-26 06:20:46.450 ,3,0,0.,4.8,0.,4.8,0.,4.8,0.,4.8
1979-07-26 06:20:51.250 ,3,0,0.,4.8,0.,4.8,0.,4.8,0.,4.8
1979-07-26 06:20:56.050 ,3,0,0.,4.8,0.,4.8,0.,4.8,0.,4.8
1979-07-26 06:21:00.850 ,3,0,0.,4.8,0.,4.8,0.,4.8,0.,4.8
1979-07-26 06:21:05.650 ,3,0,0.,4.8,0.,4.8,0.,4.8,0.,4.8
1979-07-26 06:21:10.450 ,3,0,1.,4.8,0.,4.8,0.,4.8,0.,4.8
1979-07-26 06:21:15.250 ,3,0,0.,4.8,0.,4.8,0.,4.8,0.,4.8
1979-07-26 06:21:20.050 ,3,0,1.,4.8,0.,4.8,0.,4.8,0.,4.8
1979-07-26 06:21:24.850 ,3,0,0.,4.8,0.,4.8,0.,4.8,0.,4.8
1979-07-26 06:21:29.650 ,3,0,1.,4.8,0.,4.8,0.,4.8,0.,4.8
1979-07-26 06:21:34.450 ,2,0,0.,4.8,0.,4.8,0.,4.8,0.,4.8
1979-07-26 06:21:39.250 ,2,0,1.,4.8,1.,4.8,0.,4.8,0.,4.8
1979-07-26 06:21:44.050 ,2,0,1.,4.8,0.,4.8,1.,4.8,0.,4.8
1979-07-26 06:21:48.850 ,2,0,1.,4.8,0.,4.8,0.,4.8,0.,4.8
1979-07-26 06:21:53.650 ,2,0,1.,4.8,0.,4.8,0.,4.8,0.,4.8
1979-07-26 06:21:58.450 ,2,0,2.,4.8,0.,4.8,0.,4.8,0.,4.8
1979-07-26 06:22:03.250 ,2,0,1.,4.8,0.,4.8,0.,4.8,0.,4.8
1979-07-26 06:22:08.050 ,2,0,0.,4.8,0.,4.8,0.,4.8,0.,4.8
1979-07-26 06:22:12.850 ,2,0,1.,4.8,0.,4.8,0.,4.8,0.,4.8
1979-07-26 06:22:17.650 ,2,0,2.,4.8,0.,4.8,0.,4.8,0.,4.8
1979-07-26 06:22:22.450 ,1,0,0.,4.8,0.,4.8,0.,4.8,0.,4.8
1979-07-26 06:22:27.250 ,1,0,0.,4.8,0.,4.8,0.,4.8,0.,4.8
1979-07-26 06:22:32.050 ,1,0,1.,4.8,0.,4.8,0.,4.8,0.,4.8
1979-07-26 06:22:36.850 ,1,0,0.,4.8,0.,4.8,0.,4.8,0.,4.8
1979-07-26 06:22:41.650 ,1,0,0.,4.8,0.,4.8,0.,4.8,0.,4.8
1979-07-26 06:22:46.450 ,1,0,0.,4.8,0.,4.8,0.,4.8,0.,4.8
1979-07-26 06:22:51.250 ,1,0,2.,4.8,0.,4.8,0.,4.8,0.,4.8
1979-07-26 06:22:56.050 ,1,0,1.,4.8,0.,4.8,0.,4.8,0.,4.8
1979-07-26 06:23:00.850 ,1,0,0.,4.8,0.,4.8,0.,4.8,0.,4.8
1979-07-26 06:23:05.650 ,1,0,0.,4.8,0.,4.8,0.,4.8,0.,4.8
1979-07-26 06:23:10.450 ,0,0,0.,4.8,0.,4.8,1.,4.8,0.,4.8
1979-07-26 06:23:15.250 ,0,0,2.,4.8,0.,4.8,0.,4.8,0.,4.8
1979-07-26 06:23:20.050 ,0,0,0.,4.8,0.,4.8,1.,4.8,0.,4.8
1979-07-26 06:23:24.850 ,0,0,1.,4.8,0.,4.8,0.,4.8,0.,4.8
1979-07-26 06:23:29.650 ,0,0,0.,4.8,0.,4.8,1.,4.8,0.,4.8
1979-07-26 06:23:34.450 ,0,0,0.,4.8,0.,4.8,0.,4.8,0.,4.8
1979-07-26 06:23:39.250 ,0,0,0.,4.8,0.,4.8,0.,4.8,0.,4.8
1979-07-26 06:23:44.050 ,0,0,0.,4.8,0.,4.8,0.,4.8,0.,4.8
1979-07-26 06:23:48.850 ,0,0,0.,4.8,0.,4.8,0.,4.8,0.,4.8
1979-07-26 06:23:53.650 ,0,0,0.,4.8,0.,4.8,0.,4.8,0.,4.8
1979-07-26 06:23:58.450 ,0,0,1.,4.8,0.,4.8,0.,4.8,0.,4.8
1979-07-26 06:24:03.250 ,0,0,0.,4.8,0.,4.8,0.,4.8,0.,4.8
1979-07-26 06:24:08.050 ,0,0,0.,4.8,0.,4.8,0.,4.8,0.,4.8
1979-07-26 06:24:12.850 ,0,0,1.,4.8,0.,4.8,0.,4.8,0.,4.8
1979-07-26 06:24:17.650 ,0,0,0.,4.8,0.,4.8,0.,4.8,0.,4.8
1979-07-26 06:24:22.450 ,0,0,0.,4.8,0.,4.8,0.,4.8,0.,4.8
1979-07-26 06:24:27.250 ,0,0,0.,4.8,0.,4.8,1.,4.8,0.,4.8
1979-07-26 06:24:32.050 ,0,0,0.,4.8,0.,4.8,0.,4.8,0.,4.8
1979-07-26 06:24:36.850 ,0,0,2.,4.8,0.,4.8,0.,4.8,0.,4.8
1979-07-26 06:24:41.650 ,0,0,0.,4.8,0.,4.8,0.,4.8,0.,4.8
1979-07-26 06:24:46.450 ,1,0,1.,4.8,0.,4.8,1.,4.8,0.,4.8
1979-07-26 06:24:51.250 ,1,0,0.,4.8,0.,4.8,0.,4.8,0.,4.8
1979-07-26 06:24:56.050 ,1,0,0.,4.8,0.,4.8,0.,4.8,0.,4.8
1979-07-26 06:25:00.850 ,1,0,0.,4.8,0.,4.8,0.,4.8,0.,4.8
1979-07-26 06:25:05.650 ,1,0,0.,4.8,0.,4.8,0.,4.8,0.,4.8
1979-07-26 06:25:10.450 ,1,0,0.,4.8,0.,4.8,1.,4.8,0.,4.8
1979-07-26 06:25:15.250 ,1,0,1.,4.8,0.,4.8,0.,4.8,0.,4.8
1979-07-26 06:25:20.050 ,1,0,0.,4.8,0.,4.8,0.,4.8,0.,4.8
1979-07-26 06:25:24.850 ,1,0,0.,4.8,0.,4.8,0.,4.8,0.,4.8
1979-07-26 06:25:29.650 ,1,0,1.,4.8,0.,4.8,0.,4.8,1.,4.8
1979-07-26 06:25:34.450 ,2,0,0.,4.8,0.,4.8,0.,4.8,0.,4.8
1979-07-26 06:25:39.250 ,2,0,1.,4.8,0.,4.8,0.,4.8,0.,4.8
1979-07-26 06:25:44.050 ,2,0,0.,4.8,0.,4.8,0.,4.8,0.,4.8
1979-07-26 06:25:48.850 ,2,0,0.,4.8,0.,4.8,0.,4.8,0.,4.8
1979-07-26 06:25:53.650 ,2,0,0.,4.8,0.,4.8,0.,4.8,0.,4.8
1979-07-26 06:25:58.450 ,2,0,0.,4.8,0.,4.8,0.,4.8,0.,4.8
1979-07-26 06:26:03.250 ,2,0,0.,4.8,0.,4.8,0.,4.8,0.,4.8
1979-07-26 06:26:08.050 ,2,0,0.,4.8,0.,4.8,0.,4.8,0.,4.8
1979-07-26 06:26:12.850 ,2,0,0.,4.8,0.,4.8,0.,4.8,0.,4.8
1979-07-26 06:26:17.650 ,2,0,0.,4.8,0.,4.8,0.,4.8,0.,4.8
1979-07-26 06:26:22.450 ,3,0,0.,4.8,0.,4.8,0.,4.8,0.,4.8
1979-07-26 06:26:27.250 ,3,0,1.,4.8,0.,4.8,1.,4.8,0.,4.8
1979-07-26 06:26:32.050 ,3,0,0.,4.8,0.,4.8,0.,4.8,0.,4.8
1979-07-26 06:26:36.850 ,3,0,1.,4.8,0.,4.8,0.,4.8,0.,4.8
1979-07-26 06:26:41.650 ,3,0,0.,4.8,0.,4.8,0.,4.8,0.,4.8
1979-07-26 06:26:46.450 ,3,0,0.,4.8,0.,4.8,1.,4.8,0.,4.8
1979-07-26 06:26:51.250 ,3,0,0.,4.8,0.,4.8,1.,4.8,0.,4.8
1979-07-26 06:26:56.050 ,3,0,0.,4.8,0.,4.8,0.,4.8,0.,4.8
1979-07-26 06:27:00.850 ,3,0,0.,4.8,0.,4.8,0.,4.8,0.,4.8
1979-07-26 06:27:05.650 ,3,0,0.,4.8,0.,4.8,0.,4.8,0.,4.8
1979-07-26 06:27:10.450 ,4,0,1.,4.8,0.,4.8,0.,4.8,0.,4.8
1979-07-26 06:27:15.250 ,4,0,2.,4.8,0.,4.8,0.,4.8,0.,4.8
1979-07-26 06:27:20.050 ,4,0,1.,4.8,0.,4.8,0.,4.8,0.,4.8
1979-07-26 06:27:24.850 ,4,0,0.,4.8,0.,4.8,0.,4.8,0.,4.8
1979-07-26 06:27:29.650 ,4,0,1.,4.8,0.,4.8,0.,4.8,0.,4.8
1979-07-26 06:27:34.450 ,4,0,0.,4.8,0.,4.8,0.,4.8,0.,4.8
1979-07-26 06:27:39.250 ,4,0,1.,4.8,0.,4.8,0.,4.8,0.,4.8
1979-07-26 06:27:44.050 ,4,0,1.,4.8,0.,4.8,0.,4.8,0.,4.8
1979-07-26 06:27:48.850 ,4,0,1.,4.8,0.,4.8,0.,4.8,0.,4.8
1979-07-26 06:27:53.650 ,4,0,1.,4.8,0.,4.8,0.,4.8,0.,4.8
1979-07-26 06:27:58.450 ,5,0,0.,4.8,0.,4.8,0.,4.8,0.,4.8
1979-07-26 06:28:03.250 ,5,0,3.,4.8,0.,4.8,0.,4.8,0.,4.8
1979-07-26 06:28:08.050 ,5,0,1.,4.8,0.,4.8,0.,4.8,0.,4.8
1979-07-26 06:28:12.850 ,5,0,2.,4.8,0.,4.8,0.,4.8,0.,4.8
1979-07-26 06:28:17.650 ,5,0,2.,4.8,0.,4.8,0.,4.8,0.,4.8
1979-07-26 06:28:22.450 ,5,0,1.,4.8,0.,4.8,0.,4.8,0.,4.8
1979-07-26 06:28:27.250 ,5,0,1.,4.8,0.,4.8,0.,4.8,0.,4.8
1979-07-26 06:28:32.050 ,5,0,0.,4.8,0.,4.8,0.,4.8,0.,4.8
1979-07-26 06:28:36.850 ,5,0,0.,4.8,0.,4.8,0.,4.8,0.,4.8
1979-07-26 06:28:41.650 ,5,0,2.,4.8,0.,4.8,0.,4.8,0.,4.8
1979-07-26 06:28:46.450 ,6,0,1.,4.8,0.,4.8,1.,4.8,0.,4.8
1979-07-26 06:28:51.250 ,6,0,1.,4.8,0.,4.8,0.,4.8,0.,4.8
1979-07-26 06:28:56.050 ,6,0,2.,4.8,0.,4.8,0.,4.8,0.,4.8
1979-07-26 06:29:00.850 ,6,0,0.,4.8,1.,4.8,0.,4.8,0.,4.8
1979-07-26 06:29:05.650 ,6,0,0.,4.8,0.,4.8,0.,4.8,0.,4.8
1979-07-26 06:29:10.450 ,6,0,0.,4.8,0.,4.8,0.,4.8,0.,4.8
1979-07-26 06:29:15.250 ,6,0,0.,4.8,0.,4.8,0.,4.8,0.,4.8
1979-07-26 06:29:20.050 ,6,0,0.,4.8,0.,4.8,0.,4.8,0.,4.8
1979-07-26 06:29:24.850 ,6,0,2.,4.8,0.,4.8,1.,4.8,0.,4.8
1979-07-26 06:29:29.650 ,6,0,0.,4.8,0.,4.8,0.,4.8,0.,4.8
1979-07-26 06:29:34.450 ,7,0,2.,4.8,0.,4.8,0.,4.8,0.,4.8
1979-07-26 06:29:39.250 ,7,0,0.,4.8,1.,4.8,0.,4.8,0.,4.8
1979-07-26 06:29:44.050 ,7,0,0.,4.8,0.,4.8,0.,4.8,0.,4.8
1979-07-26 06:29:48.850 ,7,0,0.,4.8,0.,4.8,0.,4.8,0.,4.8
1979-07-26 06:29:53.650 ,7,0,1.,4.8,0.,4.8,0.,4.8,0.,4.8
1979-07-26 06:29:58.450 ,7,0,0.,4.8,0.,4.8,0.,4.8,0.,4.8
1979-07-26 06:30:03.250 ,7,0,0.,4.8,0.,4.8,0.,4.8,0.,4.8
1979-07-26 06:30:08.050 ,7,0,0.,4.8,0.,4.8,0.,4.8,0.,4.8
1979-07-26 06:30:12.850 ,7,0,0.,4.8,0.,4.8,0.,4.8,0.,4.8
1979-07-26 06:30:17.650 ,7,0,0.,4.8,0.,4.8,0.,4.8,0.,4.8
1979-07-26 06:30:22.450 ,7,0,0.,4.8,0.,4.8,0.,4.8,0.,4.8
1979-07-26 06:30:27.250 ,7,0,0.,4.8,0.,4.8,0.,4.8,0.,4.8
1979-07-26 06:30:32.050 ,7,0,0.,4.8,0.,4.8,0.,4.8,0.,4.8
1979-07-26 06:30:36.850 ,7,0,0.,4.8,0.,4.8,0.,4.8,0.,4.8
1979-07-26 06:30:41.650 ,7,0,1.,4.8,0.,4.8,0.,4.8,0.,4.8
1979-07-26 06:30:46.450 ,7,0,1.,4.8,0.,4.8,0.,4.8,0.,4.8
1979-07-26 06:30:51.250 ,7,0,1.,4.8,0.,4.8,0.,4.8,0.,4.8
1979-07-26 06:30:56.050 ,7,0,0.,4.8,0.,4.8,0.,4.8,0.,4.8
1979-07-26 06:31:00.850 ,7,0,0.,4.8,0.,4.8,0.,4.8,0.,4.8
1979-07-26 06:31:05.650 ,7,0,2.,4.8,0.,4.8,0.,4.8,0.,4.8
1979-07-26 06:31:10.450 ,6,0,0.,4.8,0.,4.8,1.,4.8,0.,4.8
1979-07-26 06:31:15.250 ,6,0,0.,4.8,0.,4.8,0.,4.8,0.,4.8
1979-07-26 06:31:20.050 ,6,0,0.,4.8,0.,4.8,0.,4.8,0.,4.8
1979-07-26 06:31:24.850 ,6,0,1.,4.8,0.,4.8,0.,4.8,0.,4.8
1979-07-26 06:31:29.650 ,6,0,0.,4.8,0.,4.8,0.,4.8,0.,4.8
1979-07-26 06:31:34.450 ,6,0,0.,4.8,0.,4.8,0.,4.8,0.,4.8
1979-07-26 06:31:39.250 ,6,0,1.,4.8,0.,4.8,0.,4.8,1.,4.8
1979-07-26 06:31:44.050 ,6,0,0.,4.8,0.,4.8,0.,4.8,0.,4.8
1979-07-26 06:31:48.850 ,6,0,1.,4.8,0.,4.8,1.,4.8,0.,4.8
1979-07-26 06:31:53.650 ,6,0,0.,4.8,0.,4.8,0.,4.8,0.,4.8
1979-07-26 06:31:58.450 ,5,0,1.,4.8,0.,4.8,0.,4.8,0.,4.8
1979-07-26 06:32:03.250 ,5,0,1.,4.8,0.,4.8,0.,4.8,0.,4.8
1979-07-26 06:32:08.050 ,5,0,0.,4.8,0.,4.8,0.,4.8,0.,4.8
1979-07-26 06:32:12.850 ,5,0,0.,4.8,0.,4.8,0.,4.8,0.,4.8
1979-07-26 06:32:17.650 ,5,0,1.,4.8,0.,4.8,0.,4.8,0.,4.8
1979-07-26 06:32:22.450 ,5,0,0.,4.8,0.,4.8,0.,4.8,0.,4.8
1979-07-26 06:32:27.250 ,5,0,0.,4.8,0.,4.8,0.,4.8,0.,4.8
1979-07-26 06:32:32.050 ,5,0,0.,4.8,0.,4.8,0.,4.8,0.,4.8
1979-07-26 06:32:36.850 ,5,0,0.,4.8,0.,4.8,0.,4.8,0.,4.8
1979-07-26 06:32:41.650 ,5,0,1.,4.8,0.,4.8,0.,4.8,0.,4.8
1979-07-26 06:32:46.450 ,4,0,0.,4.8,0.,4.8,0.,4.8,0.,4.8
1979-07-26 06:32:51.250 ,4,0,0.,4.8,0.,4.8,0.,4.8,0.,4.8
1979-07-26 06:32:56.050 ,4,0,0.,4.8,0.,4.8,0.,4.8,0.,4.8
1979-07-26 06:33:00.850 ,4,0,1.,4.8,0.,4.8,0.,4.8,0.,4.8
1979-07-26 06:33:05.650 ,4,0,0.,4.8,0.,4.8,0.,4.8,0.,4.8
1979-07-26 06:33:10.450 ,4,0,1.,4.8,0.,4.8,0.,4.8,0.,4.8
1979-07-26 06:33:15.250 ,4,0,0.,4.8,0.,4.8,0.,4.8,0.,4.8